Theta_e
345 345 344 344 345 345 348 348 349 350 353 354 354 354 356 356 356 357 358 359 359 359 358 355 353 355 356 353 352 354 358 359 357 357 356 357 363 364 370 369 371 370 370 370 368 369 369 372 371 370 369 369 368 367 364 366 368 366 363 367 360 361 357 362 350 350 352 348 349 347 348 352 352 355 350 353 349 347 349 351 352 349 348 353 355
345 345 345 345 345 344 345 348 350 347 352 353 352 353 356 355 355 356 358 358 359 358 358 357 356 355 354 353 351 352 356 356 355 358 354 357 369 368 369 369 370 370 370 370 370 368 368 370 370 372 374 372 369 370 366 367 365 363 363 359 362 359 356 346 352 354 348 343 341 341 345 344 352 341 340 342 344 345 345 347 351 343 343 345 349
341 342 345 344 345 345 346 348 349 349 350 351 354 355 356 357 356 358 358 357 358 358 359 357 359 358 356 355 354 352 356 357 355 357 361 357 363 368 368 370 370 369 370 369 368 368 368 369 374 373 369 370 370 369 367 366 368 362 360 361 358 359 361 354 357 348 347 344 349 349 339 338 344 350 345 342 342 343 347 342 345 340 341 345 348
339 342 342 343 344 347 347 348 351 350 352 352 353 355 355 359 357 359 359 358 359 360 360 360 360 363 362 361 358 357 355 358 362 363 362 360 357 365 370 370 369 368 367 367 367 368 369 371 368 369 371 372 372 367 366 363 368 360 358 357 360 353 349 352 355 354 355 347 339 339 339 333 329 337 340 342 342 341 342 340 345 341 347 348 367
341 342 343 342 344 345 348 351 350 349 351 352 353 353 353 357 359 360 360 358 360 360 360 360 361 361 361 362 363 363 365 358 357 357 359 361 357 360 365 369 369 367 367 367 366 367 369 373 369 369 371 372 370 368 364 364 364 362 360 359 360 357 348 344 354 351 350 354 348 344 344 334 333 333 333 348 340 338 340 340 346 341 353 351 346
342 342 343 342 345 347 350 352 350 350 352 354 354 355 356 358 360 361 362 359 359 360 360 360 359 357 357 356 354 354 357 355 353 353 354 355 351 355 363 364 366 366 368 367 365 367 369 372 371 371 371 370 371 368 367 367 364 363 362 361 360 364 356 350 347 357 353 360 353 352 346 340 344 347 341 337 358 341 344 351 346 341 354 349 350
343 344 345 345 345 346 348 350 351 350 352 355 356 358 360 360 362 361 361 360 361 361 361 361 359 359 358 356 356 354 354 358 361 358 357 359 358 360 364 366 368 366 364 366 365 368 369 373 374 372 370 371 372 370 367 365 363 362 361 360 361 368 361 360 345 343 359 357 350 343 346 351 347 350 339 341 335 346 346 339 342 343 343 344 344
341 345 346 346 347 345 347 351 351 352 354 355 356 358 360 361 362 361 362 361 361 362 361 361 359 360 359 357 357 357 355 359 361 362 364 365 360 359 362 364 367 366 364 365 367 368 369 372 373 373 371 368 371 368 367 365 367 364 365 363 368 364 365 359 357 346 348 346 350 351 350 353 355 344 349 343 340 334 336 341 341 341 339 339 339
343 343 345 347 346 346 348 351 354 353 354 355 357 359 361 362 363 363 362 362 362 363 360 362 362 361 360 358 358 359 359 360 363 363 363 365 363 362 364 364 367 367 367 365 367 367 369 371 371 371 370 368 370 369 366 365 365 365 365 364 364 364 359 360 361 350 341 345 350 346 353 349 351 348 349 357 345 336 336 336 338 338 338 339 343
344 344 345 346 346 346 347 352 353 352 355 359 359 360 360 362 363 362 362 362 363 364 362 362 363 362 360 360 359 360 361 361 361 362 363 365 364 364 364 366 365 366 366 367 368 368 369 370 370 370 370 366 367 365 366 367 366 368 367 365 364 360 360 361 357 360 360 365 349 351 350 350 347 348 345 345 342 347 343 333 335 336 337 341 343
342 345 347 348 348 348 348 350 352 352 357 358 358 360 360 361 363 362 362 362 363 364 362 362 363 363 361 361 360 360 362 361 360 362 363 364 363 363 362 367 366 365 364 366 368 367 368 369 366 368 369 368 369 368 366 364 365 366 366 367 365 361 360 357 358 357 363 357 353 355 349 346 348 343 342 338 342 344 340 335 331 332 331 333 352
339 341 342 346 347 347 348 351 352 353 356 356 358 360 361 362 363 362 363 363 362 364 363 362 362 362 362 362 361 362 362 360 360 360 362 362 362 362 365 366 367 367 368 365 364 363 367 369 368 368 369 369 368 368 366 365 364 366 367 367 365 364 360 358 356 350 351 354 353 347 351 348 347 350 344 350 354 342 344 338 342 341 340 336 341
338 340 344 345 344 343 346 349 351 353 355 358 357 358 360 362 363 361 362 363 362 363 363 363 362 361 362 362 362 363 364 362 361 360 363 362 362 362 365 364 366 366 366 365 364 364 367 369 368 367 368 368 368 367 368 369 368 366 366 365 364 363 358 358 356 351 349 348 349 346 346 342 344 345 346 343 344 359 349 348 344 342 344 340 343
338 340 340 342 344 346 348 348 353 355 357 357 357 358 361 361 363 362 362 364 363 362 363 363 362 362 363 362 363 364 364 363 362 360 363 365 365 364 363 364 365 364 365 364 364 364 366 369 370 369 370 369 370 370 370 371 371 366 366 364 362 364 361 358 356 352 352 353 351 351 345 339 344 342 340 348 340 341 344 338 346 345 340 338 347
339 341 343 343 344 345 345 350 355 356 356 355 357 359 362 362 363 363 362 363 364 363 363 363 363 363 362 362 363 365 364 364 362 362 362 365 366 365 365 364 364 365 365 367 368 367 366 368 370 369 370 370 369 370 369 370 372 371 367 365 364 365 362 358 356 353 349 348 349 349 350 349 344 353 340 343 348 342 342 342 347 342 337 338 338
339 340 342 344 347 348 346 351 356 356 357 355 357 359 360 361 364 364 364 363 364 364 363 363 363 363 363 362 363 365 365 365 364 363 364 365 367 367 367 367 367 367 369 369 368 368 367 367 369 369 370 370 369 369 369 368 370 369 369 366 365 364 362 359 357 355 351 351 348 350 351 348 355 349 348 345 342 353 348 344 351 348 339 334 339
337 338 340 343 345 350 351 352 353 355 355 355 358 360 361 362 363 364 365 364 364 364 364 364 364 363 363 363 363 364 366 363 361 363 360 364 367 369 369 368 368 369 369 369 368 368 369 368 368 368 370 370 370 370 369 370 370 369 368 367 364 362 363 359 358 355 354 349 348 350 351 352 350 354 356 355 348 355 366 365 357 344 347 342 334
339 341 342 343 344 348 350 353 355 356 355 357 360 361 362 364 364 364 365 364 365 364 364 365 364 363 363 363 363 364 363 362 363 363 362 361 363 368 368 368 366 365 365 364 366 367 367 370 368 368 369 370 368 368 370 370 370 368 368 368 366 365 363 362 359 357 355 353 350 349 350 348 352 350 352 351 364 358 361 365 358 354 353 343 346
336 339 343 343 344 346 354 354 356 357 359 358 361 360 362 363 364 364 364 365 365 364 365 365 365 362 363 363 363 364 364 364 364 365 364 361 359 362 364 365 367 366 365 366 367 366 367 367 369 369 370 370 369 369 371 370 370 367 367 367 367 367 363 361 360 358 356 354 352 349 350 348 350 348 352 347 359 354 356 357 354 357 350 349 345
337 339 340 341 345 353 355 355 355 357 358 357 357 358 359 361 364 365 366 367 366 365 366 365 364 363 362 363 364 365 366 366 365 365 364 362 360 360 361 361 365 366 366 365 368 365 367 366 366 366 366 369 369 368 370 370 368 367 365 365 366 367 364 361 359 358 355 355 354 351 351 350 350 351 350 352 355 354 353 353 353 350 353 350 348
335 335 339 346 349 352 355 356 357 358 359 358 357 357 357 359 363 365 365 365 364 363 363 364 364 363 365 364 364 365 365 365 365 365 365 364 363 362 363 363 366 365 366 364 363 365 367 367 365 364 364 367 368 367 368 368 367 366 365 365 365 366 364 361 360 357 355 355 355 352 351 353 353 349 349 350 350 353 351 352 352 351 348 349 347
335 336 335 339 346 350 354 356 357 357 358 357 357 358 358 359 362 364 364 364 363 363 364 363 364 363 362 364 363 364 365 364 363 364 363 364 365 365 365 365 364 366 367 365 364 363 366 368 368 367 367 368 369 369 367 368 366 365 364 364 364 365 364 362 360 358 356 355 355 354 352 352 352 350 349 347 348 346 348 346 347 347 345 346 348
332 339 336 339 344 347 353 357 357 357 358 358 358 357 357 359 362 364 363 364 363 363 364 365 364 364 363 363 364 364 364 363 361 361 361 360 363 365 366 365 363 363 366 365 366 364 365 367 368 369 369 368 369 368 367 367 367 366 364 361 361 364 363 362 360 359 357 356 355 354 353 351 352 350 349 348 347 347 345 345 345 344 344 345 347
333 333 336 340 344 353 356 357 358 358 360 359 359 359 359 359 361 362 363 364 364 364 363 365 364 363 363 363 363 364 363 363 361 363 361 361 360 362 365 364 363 362 363 365 366 366 367 367 367 368 369 368 368 368 366 366 367 367 365 363 362 362 363 362 361 359 358 357 354 354 352 351 350 350 349 349 349 348 348 348 346 345 345 345 347
336 337 340 342 345 351 355 357 359 359 359 361 361 360 359 359 360 361 363 364 364 365 364 364 363 361 361 362 362 363 363 362 362 361 361 360 359 362 364 363 361 360 362 365 365 368 369 368 366 367 369 369 367 368 367 365 366 367 366 364 363 363 362 362 361 360 360 358 356 354 354 353 351 349 350 348 348 348 347 348 347 347 345 346 347
338 340 343 339 344 352 357 359 359 359 358 362 362 361 360 360 361 362 363 364 365 365 365 364 363 361 361 362 363 361 360 362 363 359 360 360 360 360 363 365 365 361 362 363 366 366 368 369 368 367 369 370 369 369 368 366 365 366 366 365 364 363 362 363 361 360 360 359 358 356 355 354 352 349 349 349 348 347 347 345 346 347 346 346 346
340 344 345 342 344 352 359 361 360 357 357 361 361 360 360 363 363 362 363 364 366 366 365 363 364 362 362 363 363 362 362 363 363 361 361 360 358 359 361 362 364 363 362 359 364 366 366 369 370 369 368 369 369 369 368 368 367 367 367 366 364 363 362 362 362 361 360 360 359 358 357 356 354 352 350 349 348 347 347 345 346 347 346 345 344
349 352 360 361 355 360 361 362 360 358 358 358 361 360 362 365 363 362 362 362 363 365 365 365 365 364 363 364 364 364 363 363 363 364 363 361 360 360 361 364 367 365 362 361 359 364 368 368 370 370 369 369 369 369 369 369 369 368 367 366 365 364 362 361 362 362 361 360 359 359 358 358 357 355 352 351 350 348 347 346 346 347 347 345 343
340 358 363 360 365 364 363 363 362 359 358 358 358 360 363 365 365 364 361 362 365 365 365 365 366 366 365 365 366 366 365 364 364 365 363 362 362 362 363 364 365 365 364 363 361 359 365 367 368 370 370 369 368 368 368 369 369 368 367 366 366 364 362 361 361 362 362 362 361 359 359 358 359 355 348 348 348 346 348 345 347 347 346 345 344
340 347 349 360 361 367 365 366 365 360 361 356 359 362 362 362 363 363 364 363 365 365 365 364 365 367 368 368 367 367 366 366 365 365 364 363 363 364 363 363 362 364 365 366 365 363 360 366 366 369 371 370 368 368 357 345 351 366 367 365 366 365 364 362 361 361 361 362 361 361 360 352 347 344 344 342 342 342 342 346 348 348 346 345 344
332 349 346 356 360 363 366 366 366 364 362 359 360 362 363 358 360 360 363 364 365 366 365 364 365 369 369 369 368 368 368 366 366 366 367 365 364 364 364 363 362 362 364 368 367 365 360 361 366 367 369 370 369 367 344 337 340 345 362 365 364 365 365 363 361 361 361 361 361 361 361 356 348 343 346 339 340 341 341 341 345 345 345 347 345
335 342 343 355 354 359 361 362 360 360 364 362 364 362 362 357 361 360 360 360 362 365 365 366 367 370 370 370 369 369 369 368 367 366 367 367 366 364 364 364 363 362 363 366 367 366 365 361 364 367 368 369 369 350 337 335 337 338 346 365 365 365 365 363 362 362 362 362 361 361 361 361 359 357 355 350 342 338 339 339 341 344 343 343 344
341 347 354 347 347 351 360 357 356 357 356 358 364 359 359 361 362 363 363 360 360 362 367 367 367 370 371 371 371 370 369 369 368 367 367 368 367 365 364 364 363 364 364 364 367 367 366 364 363 366 367 369 370 346 334 332 334 335 337 351 365 364 363 363 362 361 361 361 361 360 360 360 360 344 351 356 351 347 337 336 337 341 343 340 337
329 338 342 341 353 356 357 359 365 361 353 359 361 358 361 363 366 367 364 364 363 362 369 367 368 370 371 372 372 372 370 369 370 369 368 368 368 367 366 366 366 366 365 364 365 367 367 366 365 365 367 368 369 347 330 329 330 332 334 342 365 364 363 363 363 361 360 360 361 360 358 358 359 358 356 357 355 352 349 346 345 346 349 348 339
342 337 335 356 351 360 361 360 352 352 361 361 361 360 364 365 366 368 366 365 365 363 366 369 367 369 372 372 373 374 372 371 371 371 370 368 369 369 369 367 366 365 365 365 365 366 367 367 367 366 366 368 367 341 327 326 327 328 331 335 363 365 364 364 364 364 363 361 361 362 360 358 358 359 359 355 356 354 352 349 347 347 349 351 350
334 345 363 365 358 361 352 363 362 350 346 354 359 356 354 360 365 366 367 365 366 365 364 370 368 368 370 372 373 374 374 373 372 371 370 369 369 370 369 368 365 364 366 368 368 367 366 368 369 367 364 364 365 336 326 325 325 326 329 344 359 363 363 364 364 364 364 363 362 362 361 360 358 359 348 336 346 356 354 350 348 348 348 349 351
340 344 356 362 363 357 356 361 357 357 351 356 353 356 357 358 362 363 366 366 365 364 363 367 368 368 369 372 373 374 374 373 373 371 369 369 369 371 371 371 366 364 364 365 365 365 366 367 367 367 366 364 364 342 322 322 323 324 328 350 358 361 362 362 363 365 365 364 364 363 362 361 360 359 346 331 334 342 355 352 349 348 348 348 348
348 355 357 365 367 366 364 363 362 362 366 372 364 366 367 364 362 363 364 365 364 363 364 366 369 369 369 371 374 375 374 373 373 372 370 370 370 371 371 371 367 364 362 363 365 365 366 367 366 366 366 366 366 347 318 319 320 321 331 353 358 360 361 361 361 363 365 365 364 350 360 362 361 361 338 327 329 340 355 354 351 349 347 347 347
354 353 351 352 360 360 356 358 359 355 367 373 373 371 367 369 366 363 362 361 362 363 364 364 368 370 370 371 374 375 375 373 373 373 373 371 370 371 372 373 369 367 364 366 366 366 367 368 366 365 354 361 366 351 317 318 317 319 330 355 360 360 360 360 360 360 363 365 366 356 346 351 355 354 333 325 326 337 355 355 353 350 347 346 347
352 350 349 353 358 363 364 365 363 370 370 371 368 364 365 368 368 362 359 358 361 364 367 367 368 370 370 371 373 375 375 374 373 374 373 373 373 371 371 371 370 368 366 365 364 365 366 367 367 367 365 365 366 367 341 315 316 316 320 353 361 360 359 360 361 360 360 361 363 365 353 331 332 335 328 321 322 326 351 356 355 351 348 346 350
347 351 358 356 360 363 359 361 362 366 368 369 366 362 362 366 371 364 360 360 365 369 370 369 369 368 370 371 372 374 373 373 374 374 373 372 371 370 369 370 367 367 367 367 365 364 363 366 366 367 366 367 367 367 353 314 314 315 317 329 361 362 362 361 361 359 360 359 360 361 363 337 326 326 324 318 318 320 333 355 355 353 351 349 346
349 353 357 353 359 359 360 359 364 364 361 360 366 367 366 369 370 366 368 368 372 373 373 372 371 369 370 371 370 373 374 371 373 375 374 372 372 372 370 370 367 368 369 368 368 366 364 363 365 366 368 368 365 349 369 319 315 313 315 317 349 362 361 363 361 360 361 360 360 361 363 346 324 323 322 316 315 318 323 349 354 337 335 334 348
350 352 353 351 355 356 358 358 359 364 364 360 359 364 363 367 368 369 372 373 375 374 374 373 373 370 370 371 372 373 371 369 371 374 374 372 373 371 371 371 370 369 370 368 368 368 366 365 367 369 370 372 374 370 344 340 315 313 313 314 323 344 340 360 361 360 360 360 362 362 360 343 323 319 318 317 314 315 318 336 331 328 329 328 338
348 350 349 350 356 356 357 357 356 363 367 364 365 363 363 364 363 368 377 374 378 378 376 372 371 371 371 371 372 371 373 372 373 374 373 373 372 371 372 372 371 370 369 368 368 368 367 364 363 365 368 374 383 375 347 328 324 311 312 312 315 321 331 353 361 361 361 362 362 362 357 337 319 312 314 317 315 315 326 321 323 325 326 327 345
346 347 349 349 351 352 354 355 357 360 363 368 367 363 361 365 368 374 369 373 373 374 374 372 369 371 372 371 372 372 373 373 374 374 372 371 372 371 370 373 372 369 368 367 369 368 367 366 366 365 367 370 372 377 372 335 320 313 312 311 313 316 319 323 349 359 359 361 345 334 331 327 323 312 314 316 316 315 316 320 320 323 329 339 345
347 349 348 348 350 352 352 353 355 357 360 365 364 365 366 362 366 369 370 372 372 371 370 371 370 370 370 369 369 367 373 373 373 372 372 372 370 369 368 371 370 367 367 367 367 364 363 364 364 364 365 366 370 372 371 362 329 320 314 311 311 312 314 316 322 343 334 334 331 327 323 322 320 317 324 327 329 328 318 319 321 323 336 342 345
346 349 349 350 351 348 350 351 351 353 355 356 357 360 362 361 361 363 366 368 368 372 371 372 372 370 370 369 367 362 363 366 370 365 368 369 368 367 367 366 366 363 363 363 362 361 360 359 361 366 365 367 365 369 370 355 348 342 339 333 328 327 316 315 326 330 327 335 338 335 338 331 332 323 322 323 325 326 325 322 326 329 337 344 346
347 348 348 349 349 349 348 348 349 351 354 355 356 357 360 362 362 365 367 368 369 369 368 369 369 369 367 368 368 367 365 361 363 363 360 362 363 362 363 367 363 362 361 360 360 358 359 358 359 361 367 365 364 353 332 332 331 332 336 341 343 338 336 336 334 336 337 338 341 331 333 342 343 337 330 331 332 335 334 330 329 332 337 341 341
346 347 348 348 349 348 347 346 347 348 351 351 352 353 356 360 362 369 370 366 369 367 370 368 366 368 369 372 369 370 364 362 356 344 338 336 345 363 353 345 341 347 354 361 363 358 362 364 352 350 351 350 348 338 330 315 323 314 322 323 325 327 326 334 330 314 328 337 339 341 341 343 343 339 338 336 336 336 337 336 334 336 338 341 343
346 346 347 347 347 348 347 346 346 349 350 351 352 353 356 356 361 365 367 366 365 365 365 365 368 369 370 371 369 368 368 361 350 343 338 335 323 312 336 341 332 320 313 315 322 341 346 350 340 337 339 336 332 332 311 303 302 302 303 305 308 307 304 309 308 306 312 323 332 337 340 341 342 342 341 339 339 338 338 338 336 329 336 339 341
344 344 345 345 345 345 345 345 347 348 348 349 350 352 354 356 358 359 361 362 362 361 359 359 359 359 359 364 363 363 367 364 355 350 342 336 335 330 306 307 317 318 310 304 302 305 311 319 340 340 335 317 317 312 307 304 301 302 300 301 300 299 298 298 300 312 322 326 330 333 336 340 341 343 342 341 340 340 339 339 338 336 337 337 336
Wind_Speed
15 15 17 16 17 15 14 14 14 15 13 14 14 14 12 13 13 13 12 12 11 10 9 9 9 8 7 8 8 8 6 6 6 5 6 5 4 6 8 6 6 6 5 5 5 4 3 2 2 3 3 4 3 2 4 1 3 3 2 1 2 2 0 1 2 3 2 3 3 1 3 1 1 2 3 2 3 4 6 5 4 5 6 7 3
16 15 15 16 15 18 15 13 15 16 14 16 16 16 13 14 14 12 12 12 12 11 10 9 8 8 8 8 8 8 7 6 6 5 7 6 5 7 7 6 6 6 6 5 5 5 4 3 2 3 2 3 3 3 3 2 3 3 1 1 2 2 1 0 2 3 2 3 3 2 3 2 2 5 6 6 3 3 5 4 3 5 6 5 7
13 14 16 16 19 19 15 14 15 18 17 18 16 16 15 12 13 11 11 12 12 11 10 9 7 8 8 7 7 6 7 7 6 6 5 5 6 7 7 6 7 6 6 6 5 5 5 4 3 4 3 3 3 1 1 2 2 4 0 2 2 2 2 3 2 0 1 2 2 1 3 2 3 2 3 6 4 2 3 4 3 3 3 5 6
15 14 19 19 18 16 15 15 15 16 15 16 17 17 15 11 13 12 11 11 12 10 10 9 8 7 7 6 7 5 6 6 5 5 5 5 6 7 6 7 7 6 7 7 6 6 5 4 4 4 4 3 4 4 3 4 2 4 2 5 2 3 2 0 2 3 1 3 3 1 2 4 2 2 3 4 3 6 3 6 2 5 2 4 1
16 18 19 19 17 18 16 15 16 16 17 18 18 18 15 16 15 14 11 12 12 12 12 10 8 7 7 6 5 5 4 7 6 5 6 5 6 7 7 7 7 7 7 7 6 6 5 5 5 5 5 4 4 3 3 4 4 4 4 4 3 2 1 3 2 2 2 2 2 2 1 2 2 3 4 1 3 5 6 6 4 5 2 3 3
19 19 19 18 18 13 13 16 18 17 17 18 18 19 17 15 15 14 11 12 12 14 14 11 9 9 9 8 8 8 6 8 9 8 8 8 9 9 8 9 8 7 7 7 7 6 6 6 6 4 5 4 3 4 4 3 4 4 4 5 3 2 2 3 2 2 0 2 2 2 2 1 0 1 1 0 2 7 6 3 3 5 1 3 3
17 16 13 16 16 15 15 17 19 20 18 18 17 17 17 16 16 16 13 12 12 13 15 11 10 9 10 10 8 9 8 6 7 7 7 7 6 6 8 8 8 9 8 8 7 7 6 6 5 5 5 5 4 4 4 4 4 5 4 5 3 1 2 1 6 3 1 0 1 4 4 1 3 1 3 2 3 2 3 4 4 5 5 4 4
18 15 13 12 13 16 17 19 20 21 20 19 18 18 18 17 17 17 13 13 12 13 14 13 11 11 10 10 9 8 9 6 7 7 6 5 7 7 8 8 8 8 8 7 8 7 6 6 7 6 6 5 5 5 5 5 4 3 5 5 2 3 1 1 1 5 3 2 2 1 2 2 2 3 2 2 3 3 3 2 4 6 5 5 5
20 17 16 14 14 13 16 19 19 19 19 19 19 17 17 17 17 17 15 14 13 15 15 14 12 12 11 10 9 8 8 7 6 6 6 5 7 7 6 9 9 9 8 7 8 7 7 6 6 6 6 7 6 5 5 5 6 6 5 5 3 3 2 2 2 4 4 3 2 3 1 2 2 2 3 1 2 3 2 3 3 5 6 6 3
20 21 20 18 16 15 13 13 17 20 19 17 18 18 18 16 17 18 17 14 14 16 16 15 14 12 12 11 11 9 8 7 7 7 8 6 6 8 6 7 9 9 8 7 8 8 7 7 7 7 7 7 7 7 7 5 5 5 4 4 4 4 3 2 2 0 1 1 4 2 1 1 2 1 3 2 2 0 1 4 4 5 4 3 3
17 19 19 17 18 18 18 21 18 18 16 18 18 18 19 18 18 19 18 15 16 16 17 17 14 14 12 13 12 11 11 9 8 8 8 8 8 7 8 6 8 8 8 8 7 9 8 8 8 8 7 6 6 5 6 6 6 5 6 5 5 6 4 3 2 2 1 2 3 2 3 3 2 2 3 5 3 2 2 3 5 5 4 5 0
16 16 18 19 19 20 19 18 20 21 18 19 19 18 19 18 19 20 18 17 16 16 18 17 15 14 13 13 13 12 11 9 10 10 10 10 9 8 7 7 6 8 8 8 8 10 8 8 8 7 7 6 6 5 5 6 7 6 5 6 5 5 5 5 3 4 3 2 2 4 3 3 3 2 3 2 3 3 3 3 2 2 3 5 4
18 15 15 16 18 20 19 20 20 18 18 20 21 21 20 19 21 21 19 18 17 17 18 18 16 15 14 14 13 11 11 10 10 9 9 9 8 8 8 8 7 7 8 9 9 10 8 8 8 7 7 7 6 6 5 6 5 7 6 7 6 6 6 6 5 5 4 4 4 3 5 5 4 5 4 3 3 1 1 2 2 1 2 3 4
17 17 18 16 15 16 18 18 19 19 20 21 21 19 18 19 21 22 21 20 18 18 19 19 18 16 14 14 12 12 12 11 10 10 9 9 9 9 9 8 8 9 8 9 9 10 8 9 9 8 6 7 7 6 6 5 5 7 7 7 8 6 6 6 6 6 5 4 4 4 4 5 4 5 5 4 4 3 3 3 2 3 1 4 1
16 16 17 17 16 16 17 18 19 20 22 22 20 18 17 18 20 22 22 21 20 20 18 19 17 17 15 14 13 11 12 11 10 9 9 9 9 10 9 8 9 9 9 8 8 9 9 9 10 9 8 8 8 7 7 6 5 5 7 7 6 6 6 7 6 6 6 6 5 5 5 3 6 3 4 4 3 4 4 4 1 1 2 4 3
18 17 18 17 17 18 17 18 19 19 20 20 20 18 18 19 20 22 22 22 21 21 19 19 17 16 16 16 15 14 11 11 10 9 9 9 9 10 10 9 8 8 8 8 9 9 10 10 10 10 9 9 9 8 7 7 6 6 6 7 6 6 7 8 7 7 7 7 7 5 5 6 3 3 4 4 5 2 4 5 4 2 3 1 3
20 19 18 17 16 16 19 20 21 22 21 21 21 20 21 19 20 21 20 20 20 20 20 19 18 17 17 17 15 14 15 15 14 14 15 11 10 9 9 10 9 8 8 9 9 9 8 10 10 11 10 8 9 9 9 7 7 7 6 7 8 7 7 8 7 7 6 7 6 6 6 5 5 5 3 3 5 2 1 1 4 5 2 2 2
23 21 22 23 20 20 21 22 23 24 26 23 21 19 17 18 20 22 21 21 20 20 19 18 18 18 17 18 17 17 16 16 15 14 13 11 10 9 9 9 11 9 8 9 9 10 9 9 9 10 10 9 9 9 9 8 8 8 8 7 8 7 8 6 7 7 7 6 6 7 6 6 4 4 5 3 2 3 2 1 2 3 3 4 1
21 21 21 22 22 23 22 24 26 25 22 21 19 19 17 17 19 21 23 23 23 20 19 16 17 15 15 17 19 17 15 15 14 13 12 12 13 12 12 11 10 10 9 8 9 10 10 9 8 10 10 10 10 10 10 9 8 8 8 8 8 8 7 8 7 7 7 7 6 7 7 6 5 5 4 4 2 4 3 3 2 1 4 3 3
19 18 17 18 21 24 26 25 25 25 24 22 23 22 23 21 20 20 20 19 19 19 17 16 17 16 15 16 16 15 15 14 14 13 13 14 14 13 13 13 11 10 10 10 8 10 10 11 11 10 11 11 11 10 11 10 9 8 8 8 9 9 8 9 9 8 7 7 7 7 6 7 6 4 4 4 3 4 5 4 3 5 3 4 3
17 18 19 21 20 23 24 23 23 22 20 21 22 24 23 21 21 22 22 22 22 21 20 18 17 17 17 18 17 16 16 15 14 14 13 13 12 12 11 11 9 10 10 11 11 10 10 11 12 11 11 11 11 11 10 10 9 10 9 9 8 10 10 9 9 10 10 8 9 8 7 7 6 6 6 5 4 4 5 5 4 5 5 5 5
13 18 20 19 17 18 21 19 18 19 21 24 22 21 22 23 22 22 22 21 22 21 18 18 17 17 19 18 18 17 17 15 16 15 15 14 13 12 11 11 12 11 11 12 12 11 9 11 12 11 11 11 11 11 12 11 11 11 11 9 9 10 11 10 9 10 11 9 8 9 9 8 8 8 7 7 5 5 6 6 6 6 6 6 6
17 18 18 16 15 16 17 19 19 21 21 22 21 21 22 23 22 21 22 22 22 21 18 16 17 17 18 17 17 17 17 17 19 16 18 17 15 13 12 12 12 12 11 11 11 12 11 11 11 11 12 11 11 12 11 11 12 12 13 11 11 11 12 12 11 11 11 10 10 10 10 9 7 9 9 8 7 7 6 7 7 7 7 7 6
16 15 18 14 16 14 13 17 16 15 16 20 20 19 19 20 21 21 24 24 23 20 19 17 17 17 18 18 17 16 20 20 19 16 18 18 16 14 13 13 13 12 11 11 11 12 11 11 12 11 12 12 12 12 13 13 13 13 13 12 12 11 12 13 12 12 11 11 11 10 11 11 9 9 9 9 8 8 7 7 8 7 7 7 6
15 12 16 16 15 15 14 17 17 16 17 17 18 18 20 20 21 21 21 22 20 19 20 19 19 20 19 17 18 18 19 19 19 17 19 18 17 16 13 15 14 14 13 11 12 11 12 12 13 13 12 13 13 12 13 13 12 13 14 13 12 11 12 13 13 12 12 11 11 12 11 11 11 10 10 10 9 10 9 7 8 8 8 7 6
15 11 13 17 13 14 14 16 16 16 16 15 16 17 19 18 20 19 19 19 20 19 19 19 19 20 17 18 17 18 19 20 19 18 19 18 17 16 15 14 15 15 14 13 13 12 12 13 13 13 12 12 12 12 13 13 14 13 13 13 12 12 12 12 13 13 12 12 11 12 11 12 12 12 12 11 11 12 10 10 9 9 8 7 7
14 11 12 14 14 15 15 16 14 17 16 14 15 17 17 14 16 18 16 17 16 16 16 18 19 20 17 18 18 18 17 18 17 16 16 16 16 17 17 16 15 16 16 15 14 14 12 13 13 13 14 13 13 13 12 13 13 12 12 13 13 12 12 11 12 13 14 13 13 12 12 12 13 13 13 13 12 12 12 12 11 10 9 9 9
5 4 7 9 10 12 14 14 15 16 14 13 15 15 14 12 15 15 16 17 16 16 15 16 16 17 16 18 17 17 18 17 15 15 14 15 15 15 14 13 13 15 16 15 15 14 13 13 13 14 13 12 13 13 13 13 13 13 12 13 13 12 13 12 12 13 14 14 14 14 14 14 14 14 14 13 13 13 11 11 11 10 9 10 10
7 5 5 8 9 9 11 12 12 14 14 13 13 14 12 11 13 14 16 16 14 15 15 16 16 16 15 16 15 15 15 15 15 14 15 15 14 13 13 13 12 13 13 15 14 14 13 14 13 14 14 13 13 14 12 13 14 15 13 14 14 14 13 13 13 14 14 14 14 15 15 15 15 17 20 17 16 14 12 12 11 11 10 11 10
10 7 7 4 6 7 8 8 9 11 12 13 11 11 13 14 12 14 14 13 13 15 15 16 16 16 14 14 15 14 14 14 14 14 15 15 14 13 13 13 13 13 12 12 12 12 13 14 14 14 14 13 13 12 15 21 19 15 15 13 13 14 14 13 13 13 14 15 15 15 15 19 19 20 20 20 19 19 18 14 12 12 12 11 11
9 9 7 7 6 6 7 8 8 9 11 11 10 11 12 17 14 16 14 13 13 13 15 16 15 14 13 14 14 14 14 14 14 14 13 14 15 13 13 13 13 13 12 12 12 13 14 13 15 15 16 14 13 13 20 21 22 23 17 14 13 13 14 13 13 13 14 14 14 15 13 16 18 18 19 21 20 20 20 19 18 17 14 13 12
16 12 10 9 10 9 10 11 12 12 9 9 8 9 11 13 13 14 15 16 14 13 16 15 14 13 14 14 14 14 14 15 14 14 14 14 14 14 13 13 13 13 12 11 13 14 13 13 12 15 16 15 14 16 20 21 22 23 20 15 14 13 13 14 14 14 13 13 14 14 14 12 13 16 16 16 19 20 20 19 19 18 18 18 16
13 12 12 12 12 13 12 13 13 11 10 11 9 10 10 10 10 12 11 14 15 12 13 14 15 14 15 14 13 14 15 14 15 14 13 13 14 14 14 13 14 13 11 13 13 14 14 14 13 14 16 16 14 16 19 22 23 23 23 19 13 14 14 15 15 15 14 14 13 13 13 13 11 18 17 16 16 17 19 21 20 19 19 20 19
4 9 14 10 5 12 11 11 8 11 13 10 10 11 9 9 9 9 12 11 11 12 11 14 14 14 14 14 14 14 15 15 14 13 12 13 13 14 14 12 11 11 13 14 14 14 14 14 14 13 13 14 15 15 19 21 22 23 23 20 14 15 15 15 16 16 15 15 15 14 13 12 11 11 13 15 15 16 15 14 14 14 13 17 19
3 4 4 7 10 7 6 5 7 9 8 11 10 10 8 9 8 9 10 11 10 11 10 12 14 13 13 14 14 14 14 13 13 13 13 13 13 12 12 11 12 13 13 13 14 13 13 13 14 14 11 12 14 17 19 22 23 24 24 19 15 14 13 14 15 15 15 16 15 14 14 13 12 11 10 15 15 16 16 16 16 16 17 15 14
4 1 8 8 9 6 6 6 4 2 2 5 10 11 12 10 10 9 9 11 10 11 11 10 13 14 14 13 13 14 13 13 13 13 14 14 13 13 13 12 11 11 10 10 10 11 12 12 12 13 14 14 14 17 20 22 24 24 25 13 15 16 14 13 14 14 14 14 14 14 13 13 13 13 14 19 18 15 15 17 17 17 16 16 15
1 10 10 9 6 5 5 3 1 2 4 3 4 9 9 9 10 11 9 10 11 12 12 11 12 13 14 14 14 14 14 13 13 14 15 14 13 13 12 10 11 11 11 11 11 12 11 12 13 13 15 14 14 14 18 21 23 25 18 9 16 16 15 15 14 12 13 13 13 14 14 13 14 14 15 19 20 18 14 16 16 17 16 15 16
13 11 12 10 9 6 5 3 3 3 4 4 5 3 6 8 9 10 10 10 12 13 12 11 11 12 13 13 13 13 13 13 13 14 14 13 12 11 12 11 12 12 13 13 12 11 11 12 14 14 14 14 13 12 16 18 22 23 21 13 16 16 16 15 15 13 11 11 14 19 18 15 14 14 17 20 21 19 15 15 16 17 17 17 16
13 12 11 8 5 3 5 5 6 7 5 4 5 5 5 6 9 11 11 11 12 12 12 12 10 10 12 12 12 12 13 14 14 13 12 12 12 11 10 9 11 11 12 10 10 10 11 11 14 15 15 16 14 12 15 18 21 21 19 13 15 15 16 16 14 13 13 11 12 13 19 19 16 15 18 20 23 21 17 16 15 16 19 20 18
10 11 7 4 2 1 3 4 3 4 4 3 5 5 6 5 7 10 12 12 12 10 9 9 9 10 11 11 11 11 12 12 13 12 11 11 10 11 12 12 11 10 10 11 10 10 12 12 12 12 13 14 13 12 11 18 19 21 23 16 13 14 16 16 13 13 12 12 13 11 13 19 20 18 18 21 24 27 21 17 15 17 18 20 15
10 8 7 5 4 5 4 4 5 5 6 4 3 5 6 6 5 7 10 10 8 7 8 8 8 9 11 12 11 11 12 12 11 11 11 11 11 11 11 11 12 11 10 10 11 11 11 10 11 12 12 12 11 13 11 19 19 21 22 19 13 15 15 13 12 12 13 13 12 12 10 12 19 19 19 21 23 26 26 19 18 17 19 17 13
9 5 7 5 4 6 5 5 5 7 7 6 4 4 4 4 4 6 6 6 6 7 7 7 8 9 10 11 11 10 11 11 10 10 10 10 9 10 10 11 11 9 10 10 9 8 8 9 9 9 9 9 10 14 11 16 20 21 22 27 17 15 14 13 13 13 12 12 12 9 9 11 17 20 19 18 21 23 27 19 20 22 20 17 16
6 7 10 8 5 5 5 5 6 10 5 3 5 5 4 4 4 4 4 4 5 6 7 7 7 9 9 9 10 11 10 10 9 10 10 9 9 9 8 8 9 9 9 9 9 8 8 8 6 6 6 6 6 7 10 10 17 21 23 24 25 20 18 15 14 14 14 13 10 10 10 12 15 19 21 21 20 22 19 21 24 20 19 18 16
9 8 9 10 7 4 5 5 6 7 8 5 3 3 3 3 3 2 2 2 4 4 6 7 7 8 8 8 9 10 9 8 8 8 9 8 8 7 7 7 8 8 7 7 7 7 7 7 7 6 6 4 3 4 6 12 12 18 18 22 24 24 20 13 15 14 12 11 11 10 9 12 14 18 21 22 20 20 19 27 25 21 18 16 13
8 7 7 6 6 6 4 5 6 7 6 7 2 2 2 5 6 4 0 4 4 4 5 6 6 7 7 7 7 7 8 7 7 7 8 8 8 7 7 6 6 7 6 6 6 6 6 5 5 5 4 4 4 4 4 9 15 18 20 21 23 24 24 21 13 12 11 11 12 15 16 16 16 17 21 22 20 23 27 26 27 26 20 12 14
8 9 9 8 7 3 6 4 2 3 3 4 7 4 5 6 2 3 3 2 3 3 4 4 5 5 6 6 8 9 7 7 6 6 7 7 7 8 7 5 5 5 5 6 5 5 5 6 6 6 6 5 6 3 5 2 2 2 3 7 9 11 14 15 13 14 14 16 17 17 16 16 13 13 13 12 11 15 22 26 28 26 14 15 14
7 8 7 7 9 4 5 7 8 9 10 10 6 4 5 3 3 2 2 2 2 3 4 4 4 5 5 6 7 8 8 7 6 6 6 6 6 8 7 7 6 7 7 6 6 6 6 6 5 4 4 6 5 5 3 9 5 4 4 6 7 8 13 12 10 10 14 13 15 14 12 16 16 14 16 17 18 20 18 16 12 12 18 18 17
6 5 6 7 7 3 3 3 4 5 5 4 5 7 7 8 3 5 2 2 2 2 3 4 5 5 6 5 5 10 9 8 7 5 6 8 8 8 8 9 8 8 8 8 8 7 7 6 5 2 1 2 4 8 8 5 6 5 5 4 0 2 3 4 6 7 8 12 14 14 15 12 10 8 7 5 7 10 15 14 13 16 17 18 20
5 5 5 6 6 3 1 3 3 3 3 3 5 6 6 5 6 5 3 2 3 5 4 5 5 4 5 4 4 4 6 6 8 9 9 7 5 4 9 8 8 5 6 3 5 7 5 3 7 6 4 4 5 7 6 4 5 3 3 2 3 4 4 4 4 8 7 8 9 11 13 14 12 11 11 10 11 13 13 14 16 17 17 17 17
4 3 3 3 4 4 4 4 3 2 2 3 4 2 3 5 5 4 4 5 6 6 7 6 5 5 4 4 4 4 5 7 9 8 9 9 13 14 8 9 7 11 16 15 11 6 5 5 8 6 5 6 6 4 4 9 8 5 4 3 2 3 5 6 9 12 5 5 8 10 11 12 14 14 14 15 15 14 14 13 13 16 16 16 16
3 2 2 2 1 3 2 2 3 3 4 4 3 3 3 5 5 6 5 5 4 5 6 6 7 5 5 5 6 6 5 7 8 8 9 10 8 11 16 15 13 11 14 16 16 17 19 15 9 7 7 10 8 5 7 7 4 4 4 4 5 6 7 8 7 6 4 5 8 10 12 12 13 14 14 16 16 15 16 15 15 16 16 18 18
Wind_Direction
181 185 194 197 187 186 179 178 175 175 163 166 164 168 176 162 169 168 167 172 164 171 175 182 180 177 191 191 189 184 196 195 206 201 196 200 173 155 148 165 168 180 179 183 182 195 217 237 173 141 157 156 160 137 242 147 81 100 165 254 239 246 348 310 59 68 72 29 352 104 112 55 134 134 220 156 140 134 152 162 166 160 146 151 153
180 182 198 190 195 185 184 177 177 177 168 169 171 174 176 172 170 172 164 168 166 178 171 186 182 181 185 189 190 182 187 191 199 210 200 189 160 147 153 165 176 175 184 183 184 188 198 223 168 151 148 149 156 172 189 122 149 154 171 130 255 235 193 208 113 89 4 179 168 165 139 238 188 173 216 137 151 148 141 146 186 143 149 142 151
182 183 194 198 193 184 186 178 182 183 175 174 173 172 177 173 171 176 165 169 167 175 174 180 187 177 184 190 194 184 181 192 201 193 218 192 154 155 159 168 172 182 182 183 190 196 191 194 156 130 186 154 150 104 211 119 154 92 161 264 182 268 144 139 218 101 295 89 80 67 162 137 338 307 324 142 155 124 110 122 130 85 52 112 151
185 190 196 200 193 182 184 180 181 181 176 174 177 173 177 176 171 175 169 168 162 172 174 177 188 174 180 190 201 209 171 181 197 185 200 205 177 161 163 169 178 185 187 187 193 197 189 184 147 201 166 182 147 161 192 141 137 126 176 251 220 200 179 83 157 137 356 99 96 189 188 140 100 239 242 128 147 144 147 128 103 107 92 351 80
184 191 196 197 191 186 185 178 184 182 181 178 180 177 181 176 171 174 170 173 163 170 173 175 180 181 175 200 196 225 174 169 184 201 190 200 192 169 178 170 180 193 190 191 192 196 185 178 179 182 160 168 156 166 178 170 169 164 186 250 241 210 2 160 124 149 139 71 73 341 21 132 196 195 174 69 154 164 149 106 96 104 72 60 44
184 193 192 192 188 185 181 178 190 186 183 180 182 179 177 174 171 175 172 174 172 166 172 173 183 178 176 188 187 198 208 173 183 192 189 191 204 183 176 180 185 198 191 192 198 192 186 185 192 181 156 161 165 181 177 164 159 177 191 236 233 229 79 170 147 131 221 135 138 184 200 146 292 257 169 155 310 92 63 67 74 100 163 157 178
185 190 181 190 185 181 181 187 195 193 187 180 181 179 178 174 171 175 175 174 174 168 171 171 179 183 183 188 192 192 199 194 173 193 195 183 202 186 164 176 190 195 199 193 197 192 186 186 185 176 158 166 173 189 159 181 180 178 196 231 205 210 128 136 148 148 32 17 234 265 244 10 360 83 104 103 75 14 114 159 139 158 201 183 172
179 181 182 186 188 188 188 188 191 196 185 181 181 179 178 176 172 175 176 175 176 169 173 173 177 182 183 188 195 191 200 199 181 185 199 183 185 205 162 180 186 194 204 192 192 195 186 180 183 191 164 170 167 188 179 192 171 191 211 203 210 129 71 167 117 122 147 216 233 230 312 53 3 22 66 127 131 119 274 176 161 184 189 205 185
178 184 186 187 197 200 189 190 194 196 187 183 182 178 176 176 173 174 175 176 176 171 174 176 177 180 185 188 189 194 194 203 183 182 198 198 182 195 182 173 180 190 199 196 187 194 189 184 183 195 180 177 173 176 197 186 174 200 189 171 148 150 165 209 110 141 180 177 167 243 303 142 210 214 73 11 152 164 202 201 186 192 192 208 176
180 186 186 188 195 201 206 185 189 204 193 186 182 177 176 174 173 175 176 176 176 172 175 178 178 178 186 188 190 186 191 196 192 183 194 195 199 186 199 175 174 182 193 204 184 192 191 189 190 196 197 193 179 185 194 180 182 206 165 162 163 163 166 198 158 255 232 63 163 142 116 309 176 237 138 192 251 29 161 213 186 193 198 154 166
180 184 186 184 189 197 195 182 186 207 195 186 185 179 177 177 175 178 178 177 177 174 175 179 181 181 186 188 190 189 191 191 190 188 186 192 202 193 189 188 173 177 187 202 194 185 196 189 199 196 198 192 183 196 183 178 190 197 170 171 183 160 163 169 172 187 110 264 141 142 174 250 221 207 182 189 200 161 244 225 184 198 193 148 90
179 186 190 184 181 190 195 183 187 197 192 188 187 181 179 177 177 177 179 178 178 176 176 181 184 184 186 187 190 192 191 194 193 194 185 193 194 198 186 187 185 172 181 191 201 193 189 192 197 197 191 189 185 199 204 176 185 182 171 170 180 167 169 163 178 171 201 180 198 178 172 239 230 242 224 244 156 200 178 232 226 172 196 129 121
180 174 176 189 191 194 197 188 189 191 191 186 188 184 180 178 177 177 180 179 179 178 178 181 185 186 187 188 191 190 194 197 198 198 188 189 192 195 191 189 187 183 180 189 194 199 184 188 191 199 189 189 188 190 201 202 179 170 166 173 179 182 171 170 177 176 202 172 226 195 172 225 205 203 251 202 202 164 67 330 271 190 115 105 130
177 173 181 192 192 187 190 194 189 189 190 186 188 185 181 181 179 179 180 180 178 180 181 182 186 187 186 188 189 189 194 198 200 200 195 188 188 195 197 191 189 193 188 191 189 196 190 186 188 196 194 185 190 188 195 206 183 165 170 176 183 188 173 171 177 187 188 195 196 256 195 202 241 186 231 260 174 184 159 246 262 322 115 144 107
176 175 183 187 192 194 195 197 187 188 192 189 189 187 181 182 180 181 179 181 178 180 181 184 185 186 187 189 190 189 193 197 201 200 201 193 189 193 196 197 195 193 198 190 187 187 193 184 185 192 196 188 186 187 187 198 191 173 168 180 184 185 180 174 178 188 189 199 201 217 263 239 215 232 192 225 258 170 172 199 162 111 325 103 155
174 176 184 187 191 193 202 198 188 187 192 193 190 187 184 183 182 183 182 180 180 180 183 184 185 186 186 189 190 190 191 194 198 200 203 200 191 192 194 198 196 191 192 189 191 190 187 186 183 191 194 192 185 187 188 188 186 185 175 178 189 178 188 180 182 191 194 195 206 208 224 256 262 234 208 190 234 304 176 179 149 143 176 194 167
177 177 182 188 191 190 197 198 192 189 193 194 192 189 185 181 181 183 182 182 184 184 183 184 184 184 187 189 189 191 191 194 197 199 203 200 198 193 195 198 198 194 186 190 191 194 190 184 183 189 192 194 187 186 189 187 183 185 188 182 192 183 186 188 188 187 198 199 198 210 213 232 254 296 276 206 196 201 48 117 135 164 170 179 199
172 175 179 186 190 196 202 198 193 192 194 194 191 189 183 182 181 180 180 182 184 183 186 185 183 185 187 188 191 193 194 196 197 198 199 199 199 199 198 195 200 200 194 192 191 189 197 189 183 185 189 192 192 186 190 191 185 186 189 191 193 189 180 188 195 190 197 197 196 201 207 222 227 248 255 251 149 148 113 88 115 141 164 195 215
167 174 176 183 185 189 191 193 195 193 193 193 185 184 184 183 185 183 183 183 183 184 186 185 184 186 187 189 191 194 195 196 196 195 194 199 201 199 203 201 196 197 197 198 185 190 190 195 190 184 184 190 191 187 187 192 188 187 190 191 193 197 181 188 191 196 198 198 197 204 196 207 209 226 250 222 195 152 150 163 180 201 179 192 210
167 174 177 183 185 186 189 193 194 193 191 193 188 187 189 188 185 187 186 184 184 185 182 183 186 186 187 190 193 194 193 194 194 192 192 198 201 201 201 202 198 193 196 197 194 190 188 192 194 192 190 190 190 190 187 190 189 190 194 192 194 198 191 188 193 195 202 195 199 205 199 194 199 208 236 227 197 164 165 177 185 195 200 193 193
177 176 173 177 182 187 190 192 194 191 189 190 192 191 191 188 188 187 186 186 186 188 185 185 186 189 185 188 190 191 194 196 197 195 197 198 200 202 199 202 195 199 194 196 200 197 190 190 196 198 197 192 191 190 186 188 192 190 196 196 195 193 199 194 194 194 199 198 197 202 206 197 187 199 213 226 221 177 169 179 194 190 201 196 194
188 165 174 178 178 186 189 190 191 191 188 192 193 192 190 191 191 189 189 189 188 189 189 186 187 188 189 188 190 191 193 195 197 196 198 198 197 199 200 195 199 199 195 197 197 199 196 191 194 193 197 194 189 189 187 186 192 195 197 195 199 190 197 202 197 199 197 202 194 199 204 202 191 198 203 208 220 208 180 184 198 199 197 202 196
192 173 174 175 177 187 186 184 191 192 189 190 192 193 194 193 190 190 190 191 190 190 190 188 190 190 189 188 188 191 191 194 198 197 200 201 200 199 197 199 201 201 198 199 195 196 196 196 196 194 193 196 189 190 191 189 192 195 198 199 199 194 193 200 202 203 200 198 197 197 202 200 196 199 203 207 209 222 200 191 197 200 203 203 198
196 192 168 170 179 176 176 178 187 192 187 189 194 194 193 194 195 192 193 191 190 190 189 188 191 193 190 188 190 191 192 193 196 196 199 201 201 201 197 201 203 206 200 199 198 194 193 197 198 197 194 195 193 190 193 194 192 195 199 203 200 198 194 199 205 204 204 201 202 198 201 201 201 200 201 204 209 211 213 191 196 197 202 203 199
187 197 162 166 171 172 175 176 181 190 190 188 191 193 193 195 196 196 195 191 190 190 189 187 189 193 193 192 191 191 193 194 196 197 200 201 201 201 198 200 203 205 205 194 198 196 193 195 200 199 198 195 196 193 194 198 197 195 199 202 204 203 199 198 203 206 205 206 205 204 199 198 199 202 199 203 206 208 211 204 196 199 198 202 204
177 186 155 164 170 170 175 173 179 186 192 186 189 193 197 196 198 197 193 193 192 192 190 186 187 191 192 192 193 195 196 196 196 198 200 201 201 202 199 196 200 204 203 200 194 197 196 195 199 200 201 198 196 196 196 199 202 199 198 203 206 207 206 203 202 205 205 206 210 207 203 199 200 201 201 201 202 209 207 208 205 198 198 199 205
167 177 170 176 167 175 173 171 174 184 191 186 186 194 198 194 195 198 195 194 190 192 189 189 189 193 190 192 194 195 195 196 195 198 200 199 203 204 203 201 198 204 205 206 199 196 198 197 196 199 202 201 198 198 198 198 202 203 199 201 206 208 209 208 208 206 206 206 209 208 206 203 203 203 202 199 199 203 206 207 205 200 195 200 202
100 124 103 144 171 160 159 165 174 182 188 189 188 193 196 192 192 197 198 195 193 192 190 188 189 193 193 192 194 195 198 197 195 194 198 200 202 203 202 200 194 200 206 207 208 199 194 197 196 199 201 200 200 200 200 198 199 201 201 201 204 208 209 210 210 208 208 209 208 209 210 207 205 205 204 200 197 200 203 207 203 200 197 197 202
124 82 83 117 136 149 157 162 171 180 187 191 190 191 190 191 192 193 202 198 191 189 190 190 190 194 193 190 191 194 199 198 195 193 197 199 201 202 201 200 198 197 203 208 210 209 197 197 199 198 199 200 202 202 199 198 197 200 203 203 202 206 208 209 210 210 208 210 211 212 211 210 206 207 205 203 199 195 196 202 200 198 198 198 199
133 139 132 102 116 133 150 157 172 183 184 190 191 186 186 191 191 192 198 202 191 187 190 193 193 193 190 187 190 194 197 198 197 195 195 197 199 200 201 202 203 201 197 200 206 208 207 197 198 199 200 203 205 204 200 195 194 197 201 205 202 205 208 209 208 210 211 211 214 214 215 211 207 205 206 205 202 197 199 199 197 194 197 197 199
139 142 151 144 148 145 151 168 184 192 189 192 190 188 185 195 194 197 194 199 195 186 189 194 194 188 187 187 188 193 193 197 200 198 194 196 199 200 201 202 204 203 200 194 198 203 212 207 199 201 202 205 207 207 197 194 195 195 197 201 203 203 206 210 210 209 211 211 215 216 217 210 209 205 205 203 203 201 200 202 198 198 197 196 195
150 151 151 157 164 171 175 181 187 194 198 194 192 188 189 199 190 196 196 199 206 194 190 191 189 184 188 188 189 190 193 197 197 198 196 196 197 201 203 202 202 202 201 196 196 202 207 212 202 203 208 208 211 207 193 194 194 194 196 199 202 203 204 208 213 212 211 213 214 215 215 216 208 207 202 202 204 203 201 202 202 199 201 203 201
154 152 144 165 177 180 183 185 188 194 197 202 197 194 196 199 193 192 195 200 204 200 188 189 188 186 187 188 187 190 194 195 197 198 196 194 196 201 203 202 203 202 199 203 201 199 204 209 212 203 207 209 214 204 192 193 195 196 198 199 204 204 204 208 211 213 214 212 215 216 218 214 217 201 202 202 201 205 203 201 203 203 204 202 205
154 134 164 175 188 165 176 180 176 186 194 198 200 203 199 195 197 187 195 203 199 207 191 188 188 189 186 186 188 190 195 197 195 195 195 197 198 202 202 203 202 199 203 207 204 204 204 207 212 213 209 211 214 202 190 192 195 196 199 201 210 206 209 211 210 212 214 215 213 216 217 218 216 202 201 203 202 202 200 198 201 205 208 208 206
358 351 336 80 102 112 118 129 170 190 180 182 192 197 191 194 196 195 194 197 201 203 200 186 189 188 184 186 188 190 194 195 193 192 194 198 200 201 199 200 201 203 204 206 206 207 207 207 211 216 219 217 218 200 186 190 194 196 199 201 212 215 216 215 214 212 214 214 216 215 216 219 216 212 201 203 200 202 201 202 204 207 210 209 207
224 74 79 53 57 52 56 56 51 75 235 182 184 194 201 199 194 200 195 196 198 201 205 189 188 188 188 185 186 189 190 191 191 191 195 199 199 197 197 198 204 208 209 209 211 215 212 212 212 215 222 227 225 201 188 189 192 195 196 198 211 218 222 223 220 217 214 217 218 216 216 217 215 216 206 199 200 197 201 203 206 210 214 217 216
174 92 80 71 55 45 28 3 328 294 276 250 206 189 197 193 191 199 198 195 197 202 205 198 189 189 188 185 185 188 189 190 190 192 197 198 196 196 197 193 203 209 210 209 211 213 215 214 214 214 219 227 230 211 190 192 191 193 191 199 209 216 223 228 229 222 220 219 217 216 215 215 214 217 204 193 199 189 200 205 208 210 214 217 223
74 81 76 67 51 26 38 357 317 274 257 291 298 258 186 187 187 190 196 198 200 206 204 200 194 189 187 184 183 186 188 190 192 195 196 197 195 197 199 192 200 204 210 213 211 213 215 216 218 219 217 224 229 211 187 194 195 191 190 194 207 213 223 228 232 230 228 226 223 217 215 216 215 214 201 191 193 190 198 204 209 212 215 220 222
53 54 56 46 38 13 304 284 270 269 257 235 244 278 273 195 184 184 192 201 205 206 201 201 194 184 185 185 185 189 191 191 195 195 191 190 191 192 194 191 202 205 213 211 209 212 214 215 221 224 221 223 229 218 190 192 194 195 196 204 204 213 221 227 227 231 234 233 231 222 216 218 218 212 195 191 190 190 202 203 202 208 216 219 217
38 40 26 21 15 315 349 324 334 353 319 232 215 240 255 240 189 183 192 203 207 203 199 196 190 180 182 185 189 190 191 194 194 192 192 191 185 190 195 195 200 205 207 212 214 214 215 218 219 223 227 223 225 227 191 195 191 197 198 202 209 210 222 224 225 230 232 234 234 233 217 218 220 213 197 193 191 194 201 203 201 209 215 221 211
23 35 35 27 28 49 348 326 308 287 279 293 264 223 238 250 211 193 200 203 199 190 190 189 189 185 183 187 189 189 191 195 197 195 191 191 191 193 194 194 201 203 205 207 215 217 220 220 220 220 228 225 223 225 195 187 195 195 197 201 212 215 221 222 226 231 233 237 238 234 243 211 215 216 205 198 196 199 202 204 206 212 214 214 197
0 3 49 24 39 20 341 316 279 245 229 243 244 244 242 247 227 208 199 183 178 178 178 182 185 187 186 190 194 189 189 196 196 192 192 191 189 193 194 193 200 200 202 203 205 216 220 223 221 222 228 228 222 211 210 189 190 192 194 201 207 218 215 222 227 233 234 238 239 239 237 222 208 215 214 206 205 203 206 209 215 216 212 198 200
344 32 31 17 24 348 345 336 351 0 345 229 227 221 229 242 235 208 186 179 173 174 172 178 181 187 192 192 190 188 185 195 196 191 190 189 186 191 193 193 193 199 202 199 202 206 214 224 229 225 224 223 228 222 209 185 195 192 195 199 209 214 212 213 225 232 234 239 241 243 242 234 208 211 213 213 208 207 206 215 220 214 208 200 199
5 17 23 351 18 11 354 23 353 354 345 328 250 195 212 200 202 172 197 183 182 171 168 174 179 184 190 192 187 186 182 192 192 183 183 183 186 189 191 192 190 197 196 198 202 201 211 219 227 233 237 241 225 240 180 173 180 195 200 203 211 220 220 218 222 235 237 242 243 242 238 232 213 210 215 216 209 204 209 216 219 215 206 197 200
354 3 14 343 358 13 350 7 12 359 356 338 13 138 166 82 32 1 176 195 190 174 146 165 171 180 183 192 183 181 178 183 181 173 173 176 184 184 193 188 186 190 197 208 197 197 204 217 231 237 238 226 224 228 238 176 179 187 198 205 213 218 225 226 230 234 244 244 241 233 229 230 222 211 212 214 213 212 212 212 213 213 206 196 204
350 19 15 350 329 12 4 1 45 20 352 20 8 13 95 62 44 31 359 45 97 101 122 144 164 173 180 186 187 186 167 171 169 170 172 175 186 181 187 179 185 187 200 206 204 203 204 210 212 223 221 223 228 218 243 142 126 118 237 261 274 278 272 268 279 292 270 257 246 240 237 240 233 220 214 204 165 212 220 218 214 210 202 208 208
335 356 347 335 322 347 30 24 16 16 11 9 5 39 52 64 32 315 234 125 157 145 146 161 164 169 177 189 183 184 178 176 176 180 174 175 183 183 184 178 182 206 205 197 205 205 212 218 216 208 209 218 217 207 56 56 65 126 169 170 186 216 226 241 254 254 275 284 284 279 262 256 251 227 216 213 212 214 213 218 226 214 211 213 212
339 344 334 324 308 316 6 3 15 357 12 10 23 25 21 359 292 221 161 149 158 143 158 173 166 168 164 183 171 180 175 175 179 188 187 182 182 190 189 178 189 202 202 191 195 197 197 209 215 212 280 52 50 64 57 43 37 23 18 17 105 186 225 206 238 246 252 264 267 273 279 284 281 278 247 266 244 227 217 215 213 215 218 219 218
325 346 341 347 329 326 18 23 34 12 8 14 22 9 4 15 356 17 69 159 128 158 173 171 163 159 146 146 151 155 157 160 96 80 61 35 1 71 76 68 41 22 51 40 90 73 59 71 78 66 57 59 47 56 48 75 86 89 79 59 19 356 353 334 306 348 321 293 276 258 257 260 261 255 254 239 237 234 233 224 219 219 222 222 220
297 303 317 327 343 7 45 53 39 3 53 60 54 28 358 24 16 29 67 82 81 70 71 67 72 62 87 91 72 74 47 81 101 96 85 63 41 39 60 103 83 63 69 69 79 78 58 70 87 64 44 59 60 59 96 98 103 109 122 177 209 247 263 282 299 310 296 289 270 268 258 255 252 246 243 241 237 236 236 228 225 224 223 223 223
291 265 256 278 344 45 48 65 51 21 42 42 49 73 47 31 40 30 31 51 61 71 73 66 57 58 59 76 71 50 60 100 106 100 91 91 82 47 38 55 86 93 91 88 82 78 66 57 71 95 84 95 99 86 39 7 39 125 160 188 206 218 246 263 280 338 315 253 259 249 255 250 252 252 251 246 241 237 232 227 223 219 219 221 223